Juneau, WI

9:22 AM CDT on June 24, 2017 (GMT -0500)
Dodge County

Weather History for KUNU - March, 2013

Change the Weather History Date:

Monday, March 11, 2013

  Actual Average Record
Temperature  
Mean Temperature 32 °F -  
Max Temperature 33 °F 34 °F 62 °F (1973)
Min Temperature 30 °F 20 °F 0 °F (1979)
Degree Days  
Heating Degree Days 34    
Moisture  
Dew Point 31 °F    
Average Humidity 98    
Maximum Humidity 100    
Minimum Humidity 75    
Precipitation  
Precipitation 0.01 in - - ()
Sea Level Pressure  
Sea Level Pressure 29.60 in    
Wind  
Wind Speed 7 mph (NW)    
Max Wind Speed 13 mph    
Max Gust Speed 20 mph    
Visibility 4 miles    
Events Fog , Rain , Snow    
Averages and records for this station are not official NWS values.
T = Trace of Precipitation, MM = Missing Value Source: NWS Daily Summary

Daily Weather History Graph

Daily Weather History Graph

Search for Another Location

Airport or City:

Trip Planner

Search our weather history database for the weather conditions in past years. The results will help you decide how hot, cold, wet, or windy it might be!

Date:

Astronomy

Mar. 11, 2013 Rise Set
Actual Time 7:13 AM CDT 6:56 PM CDT
Civil Twilight 6:45 AM CDT 7:25 PM CDT
Nautical Twilight 6:12 AM CDT 7:58 PM CDT
Astronomical Twilight 5:38 AM CDT 8:31 PM CDT
Moon 6:46 AM CDT (3/11) 7:10 PM CDT (3/11)
Length of Visible Light 12h 39m
Length of Day
11h 43m
Waning Crescent, 0% of the Moon is Illuminated
Mar 11
Waning Crescent
Mar 11
New
Mar 19
First Quarter
Mar 27
Full
Apr 2
Last Quarter

Hourly Weather History & Observations

Time (CDT) Temp. Windchill Dew Point Humidity Pressure Visibility Wind Dir Wind Speed Gust Speed Precip Events Conditions
12:15 AM 33.8 °F 25.3 °F 33.8 °F 100% 29.62 in 7.0 mi NNE 11.5 mph - N/A   Light Drizzle
12:35 AM 33.8 °F 26.4 °F 33.8 °F 100% 29.61 in 10.0 mi North 9.2 mph - N/A   Overcast
1:15 AM 32.0 °F 25.6 °F 32.0 °F 100% 29.61 in 10.0 mi North 6.9 mph - N/A   Overcast
1:35 AM 32.0 °F 24.2 °F 32.0 °F 100% 29.61 in 10.0 mi North 9.2 mph - N/A   Overcast
1:55 AM 32.0 °F 25.6 °F 32.0 °F 100% 29.60 in 10.0 mi North 6.9 mph - N/A   Overcast
2:15 AM 32.0 °F 26.4 °F 32.0 °F 100% 29.60 in 7.0 mi NNE 5.8 mph - N/A   Overcast
2:35 AM 32.0 °F 27.5 °F 32.0 °F 100% 29.60 in 7.0 mi North 4.6 mph - N/A   Overcast
2:55 AM 32.0 °F 25.6 °F 32.0 °F 100% 29.59 in 3.0 mi North 6.9 mph - N/A   Overcast
3:15 AM 32.0 °F 26.4 °F 32.0 °F 100% 29.58 in 1.5 mi NNE 5.8 mph - N/A   Overcast
3:35 AM 32.0 °F 26.4 °F 32.0 °F 100% 29.59 in 1.0 mi NW 5.8 mph - N/A   Overcast
3:55 AM 32.0 °F 26.4 °F 32.0 °F 100% 29.59 in 0.5 mi NNW 5.8 mph - N/A Fog Fog
4:15 AM 32.0 °F 26.4 °F 32.0 °F 100% 29.58 in 0.5 mi NNW 5.8 mph - N/A Fog Fog
4:35 AM 32.0 °F 27.5 °F 32.0 °F 100% 29.57 in 0.5 mi NNW 4.6 mph - N/A Fog Fog
4:55 AM 32.0 °F 27.5 °F 32.0 °F 100% 29.57 in 0.2 mi NNW 4.6 mph - N/A Fog Fog
5:15 AM 32.0 °F 26.4 °F 32.0 °F 100% 29.57 in 0.2 mi NW 5.8 mph - N/A Fog Fog
5:35 AM 32.0 °F 27.5 °F 32.0 °F 100% 29.58 in 0.5 mi NW 4.6 mph - N/A Fog Fog
5:55 AM 32.0 °F 27.5 °F 32.0 °F 100% 29.59 in 0.8 mi WNW 4.6 mph - N/A   Overcast
6:15 AM 32.0 °F 27.5 °F 32.0 °F 100% 29.59 in 1.0 mi NNW 4.6 mph - N/A   Overcast
6:35 AM 32.0 °F - 32.0 °F 100% 29.60 in 1.0 mi Calm Calm - N/A   Overcast
6:55 AM 32.0 °F - 32.0 °F 100% 29.61 in 1.0 mi Calm Calm - N/A   Overcast
7:15 AM 32.0 °F 27.5 °F 32.0 °F 100% 29.61 in 1.5 mi NNW 4.6 mph - N/A   Overcast
7:35 AM 32.0 °F - 32.0 °F 100% 29.61 in 1.5 mi Calm Calm - N/A   Overcast
7:55 AM 32.0 °F 27.5 °F 32.0 °F 100% 29.61 in 3.0 mi WNW 4.6 mph - N/A   Overcast
8:15 AM 32.0 °F 28.7 °F 32.0 °F 100% 29.61 in 2.0 mi WNW 3.5 mph - N/A   Overcast
8:35 AM 32.0 °F 26.4 °F 32.0 °F 100% 29.60 in 4.0 mi NNW 5.8 mph - N/A   Overcast
8:55 AM 32.0 °F 26.4 °F 32.0 °F 100% 29.60 in 3.0 mi NW 5.8 mph - N/A   Overcast
9:15 AM 32.0 °F 27.5 °F 32.0 °F 100% 29.61 in 10.0 mi WNW 4.6 mph - N/A   Overcast
9:35 AM 32.0 °F 26.4 °F 32.0 °F 100% 29.59 in 7.0 mi NW 5.8 mph - N/A   Overcast
9:55 AM 32.0 °F 26.4 °F 32.0 °F 100% 29.58 in 3.0 mi NNW 5.8 mph - N/A   Overcast
10:15 AM 32.0 °F 27.5 °F 32.0 °F 100% 29.57 in 2.0 mi NW 4.6 mph - N/A   Overcast
10:35 AM 32.0 °F 26.4 °F 32.0 °F 100% 29.57 in 4.0 mi NNW 5.8 mph - N/A   Overcast
10:55 AM 32.0 °F 28.7 °F 32.0 °F 100% 29.56 in 3.0 mi NW 3.5 mph - N/A   Overcast
11:15 AM 32.0 °F 28.7 °F 32.0 °F 100% 29.57 in 1.8 mi WNW 3.5 mph - N/A   Overcast
11:35 AM 32.0 °F 28.7 °F 32.0 °F 100% 29.57 in 1.5 mi NW 3.5 mph - N/A   Overcast
11:55 AM 32.0 °F 26.4 °F 32.0 °F 100% 29.56 in 0.8 mi NW 5.8 mph - N/A   Overcast
12:15 PM 32.0 °F 28.7 °F 32.0 °F 100% 29.56 in 0.5 mi NW 3.5 mph - N/A Rain Light Rain
12:35 PM 32.0 °F 25.6 °F 32.0 °F 100% 29.55 in 0.8 mi NW 6.9 mph - N/A Snow Light Snow
12:55 PM 32.0 °F 27.5 °F 32.0 °F 100% 29.55 in 3.0 mi NW 4.6 mph - N/A Snow Light Snow
1:15 PM 32.0 °F 27.5 °F 32.0 °F 100% 29.55 in 2.5 mi NW 4.6 mph - N/A Rain Light Rain
1:35 PM 32.0 °F 27.5 °F 32.0 °F 100% 29.54 in 3.0 mi NW 4.6 mph - N/A Rain Light Rain
1:55 PM 32.0 °F 25.6 °F 32.0 °F 100% 29.54 in 1.2 mi WNW 6.9 mph - N/A Snow Light Snow
2:15 PM 32.0 °F 25.6 °F 32.0 °F 100% 29.53 in 1.0 mi WNW 6.9 mph - N/A Snow Light Snow
2:35 PM 32.0 °F 25.6 °F 32.0 °F 100% 29.53 in 1.2 mi NW 6.9 mph - N/A Snow Light Snow
2:55 PM 32.0 °F 27.5 °F 32.0 °F 100% 29.53 in 1.5 mi NW 4.6 mph - 0.01 in Snow Light Snow
3:15 PM 32.0 °F 26.4 °F 32.0 °F 100% 29.54 in 1.2 mi WNW 5.8 mph - N/A Snow Light Snow
3:35 PM 32.0 °F 26.4 °F 32.0 °F 100% 29.54 in 2.5 mi WNW 5.8 mph - N/A Snow Light Snow
3:55 PM 32.0 °F 26.4 °F 32.0 °F 100% 29.54 in 2.5 mi WNW 5.8 mph - N/A Snow Light Snow
4:15 PM 32.0 °F 27.5 °F 32.0 °F 100% 29.55 in 1.5 mi WNW 4.6 mph - N/A Snow Light Snow
4:35 PM 32.0 °F 28.7 °F 32.0 °F 100% 29.55 in 2.0 mi WNW 3.5 mph - N/A Snow Light Snow
4:55 PM 32.0 °F 24.8 °F 32.0 °F 100% 29.55 in 3.0 mi West 8.1 mph - N/A Snow Light Snow
5:15 PM 32.0 °F 24.8 °F 32.0 °F 100% 29.55 in 5.0 mi West 8.1 mph - N/A Snow Light Snow
5:35 PM 32.0 °F 25.6 °F 32.0 °F 100% 29.57 in 3.0 mi West 6.9 mph - N/A Snow Light Snow
5:55 PM 32.0 °F 24.8 °F 32.0 °F 100% 29.57 in 2.5 mi WNW 8.1 mph - N/A Snow Light Snow
6:15 PM 32.0 °F 23.6 °F 32.0 °F 100% 29.59 in 7.0 mi West 10.4 mph - N/A   Overcast
6:35 PM 32.0 °F 25.6 °F 32.0 °F 100% 29.60 in 3.0 mi West 6.9 mph - N/A Snow Light Snow
6:55 PM 32.0 °F 25.6 °F 32.0 °F 100% 29.61 in 5.0 mi West 6.9 mph 16.1 mph N/A   Overcast
7:15 PM 32.0 °F 24.8 °F 32.0 °F 100% 29.62 in 10.0 mi West 8.1 mph - N/A   Overcast
7:35 PM 32.0 °F 24.8 °F 30.2 °F 93% 29.64 in 10.0 mi West 8.1 mph - N/A   Overcast
7:55 PM 32.0 °F 24.8 °F 28.4 °F 87% 29.64 in 10.0 mi West 8.1 mph - N/A   Overcast
8:15 PM 32.0 °F 25.6 °F 28.4 °F 87% 29.66 in 10.0 mi West 6.9 mph - N/A Snow Light Snow
8:35 PM 32.0 °F 24.8 °F 26.6 °F 80% 29.67 in 10.0 mi West 8.1 mph - N/A Snow Light Snow
8:55 PM 32.0 °F 24.2 °F 28.4 °F 87% 29.67 in 5.0 mi West 9.2 mph - N/A Snow Light Snow
9:15 PM 32.0 °F 24.2 °F 28.4 °F 87% 29.68 in 10.0 mi West 9.2 mph - N/A   Overcast
9:35 PM 30.2 °F 21.9 °F 30.2 °F 100% 29.69 in 2.0 mi WNW 9.2 mph - N/A Snow Light Snow
9:55 PM 30.2 °F 24.3 °F 30.2 °F 100% 29.69 in 4.0 mi West 5.8 mph - N/A Snow Light Snow
10:15 PM 30.2 °F 21.9 °F 28.4 °F 93% 29.70 in 10.0 mi West 9.2 mph - N/A   Overcast
10:35 PM 30.2 °F 23.4 °F 26.6 °F 86% 29.71 in 10.0 mi WNW 6.9 mph 16.1 mph N/A   Overcast
10:55 PM 30.2 °F 21.3 °F 26.6 °F 86% 29.71 in 10.0 mi West 10.4 mph - N/A   Overcast
11:15 PM 30.2 °F 20.2 °F 28.4 °F 93% 29.72 in 10.0 mi WNW 12.7 mph 19.6 mph N/A   Overcast
11:35 PM 30.2 °F 21.3 °F 23.0 °F 75% 29.72 in 10.0 mi NW 10.4 mph 17.3 mph N/A   Overcast
11:55 PM 30.2 °F 20.8 °F 23.0 °F 75% 29.73 in 10.0 mi WNW 11.5 mph 17.3 mph N/A   Overcast